sat.trackr.live / text

‹ back to catalog

SPOT 6

NORAD 38755 · 2012-047A

PAYLOAD ACTIVE UNKNOWN

§ Identity

Operator
Country
FR
Launch date
2012-09-09
Launch site
SRILR
Launch vehicle
Mass (kg)
RCS (m²)
3.80

Purposes: earth_obs

External: N2YO · Heavens-Above · Gunter

§ Orbital elements

Epoch: 2026-05-25T03:32:40.284672Z

Period
98.73 min
Inclination
98.2122°
Eccentricity
0.0001284
Mean motion
14.58545655 rev/d
Perigee alt
697.0 km
Apogee alt
698.8 km
Semi-major
7,076.0 km
B*
1.7515e-5
RAAN
212.7245°
Arg perigee
97.1155°
Mean anomaly
263.0190°
Rev number
72,969

§ Raw data

SPOT 61 38755U 12047A   26145.14768848  .00000036  00000+0  17515-4 0  99972 38755  98.2122 212.7245 0001284  97.1155 263.0190 14.58545655729692

JSON: /api/v1/satellites/38755 · /tle

For live sub-satellite position, see the globe view (requires WebGL).

§ Visibility from observer

Set your observer location to see the next 7 days of passes ≥ 10°. The values pass through the URL so the page stays shareable.

No JS? Fill the form by hand. The geolocation button needs JavaScript.